• En España
  • Lista de países
  • Para 7 días
  • Temperatura del agua
  • Mapa Satelital
  • El tiempo en el mapa
  • Informadores
  • user-avatar
    Iniciar sesión

    Tiempo cada hora Darwin

    Hoy, 22 Julio, Domingo

    Tiempo Temperatura Precipitaciones Viento Presión Humedad
    00:00 +24°C° 0 mm 2 mps 760 mmHg 36%
    01:00 +24°C° 0 mm 3 mps 760 mmHg 36%
    02:00 +22°C° 0 mm 3 mps 760 mmHg 35%
    03:00 +22°C° 0 mm 3 mps 760 mmHg 48%
    04:00 +21°C° 0 mm 3 mps 761 mmHg 47%
    05:00 +20°C° 0 mm 3 mps 761 mmHg 46%
    06:00 +20°C° 0 mm 3 mps 761 mmHg 44%
    07:00 +22°C° 0 mm 4 mps 761 mmHg 38%
    08:00 +23°C° 0 mm 5 mps 762 mmHg 32%
    09:00 +27°C° 0 mm 5 mps 762 mmHg 24%
    10:00 +29°C° 0 mm 4 mps 762 mmHg 21%
    11:00 +33°C° 0 mm 4 mps 761 mmHg 19%
    12:00 +35°C° 0 mm 4 mps 761 mmHg 16%
    13:00 +36°C° 0 mm 4 mps 760 mmHg 15%
    14:00 +36°C° 0 mm 3 mps 759 mmHg 15%
    15:00 +37°C° 0 mm 3 mps 759 mmHg 15%
    16:00 +35°C° 0 mm 2 mps 759 mmHg 17%
    17:00 +32°C° 0 mm 2 mps 759 mmHg 20%
    18:00 +30°C° 0 mm 2 mps 758 mmHg 23%
    19:00 +28°C° 0 mm 2 mps 759 mmHg 26%
    20:00 +27°C° 0 mm 2 mps 759 mmHg 30%
    21:00 +25°C° 0 mm 2 mps 759 mmHg 33%
    22:00 +24°C° 0 mm 1 mps 760 mmHg 32%
    23:00 +23°C° 0 mm 1 mps 760 mmHg 31%

    Mañana, 23 Julio, Lunes

    Tiempo Temperatura Precipitaciones Viento Presión Humedad
    00:00 +23°C° 0 mm 1 mps 760 mmHg 31%
    01:00 +22°C° 0 mm 1 mps 760 mmHg 28%
    02:00 +21°C° 0 mm 2 mps 760 mmHg 25%
    03:00 +20°C° 0 mm 2 mps 760 mmHg 22%
    04:00 +20°C° 0 mm 3 mps 760 mmHg 21%
    05:00 +19°C° 0 mm 3 mps 760 mmHg 20%
    06:00 +19°C° 0 mm 3 mps 760 mmHg 19%
    07:00 +21°C° 0 mm 4 mps 761 mmHg 18%
    08:00 +23°C° 0 mm 4 mps 761 mmHg 17%
    09:00 +26°C° 0 mm 4 mps 761 mmHg 16%
    10:00 +29°C° 0 mm 3 mps 761 mmHg 14%
    11:00 +33°C° 0 mm 3 mps 760 mmHg 12%
    12:00 +35°C° 0 mm 3 mps 760 mmHg 11%
    13:00 +36°C° 0 mm 3 mps 759 mmHg 11%
    14:00 +37°C° 0 mm 2 mps 758 mmHg 11%
    15:00 +38°C° 0 mm 2 mps 758 mmHg 11%
    16:00 +36°C° 0 mm 2 mps 758 mmHg 15%
    17:00 +32°C° 0 mm 2 mps 758 mmHg 19%
    18:00 +29°C° 0 mm 2 mps 757 mmHg 23%
    19:00 +28°C° 0 mm 2 mps 758 mmHg 29%
    20:00 +26°C° 0 mm 2 mps 759 mmHg 34%
    21:00 +25°C° 0 mm 2 mps 759 mmHg 39%
    22:00 +24°C° 0 mm 2 mps 759 mmHg 42%
    23:00 +23°C° 0 mm 1 mps 759 mmHg 45%

    Pasado mañana, 24 Julio, Martes

    Tiempo Temperatura Precipitaciones Viento Presión Humedad
    00:00 +23°C° 0 mm 1 mps 760 mmHg 48%
    01:00 +23°C° 0 mm 1 mps 760 mmHg 47%
    02:00 +22°C° 0 mm 1 mps 759 mmHg 46%
    03:00 +22°C° 0 mm 1 mps 759 mmHg 45%
    04:00 +22°C° 0 mm 1 mps 759 mmHg 47%
    05:00 +21°C° 0 mm 2 mps 759 mmHg 49%
    06:00 +21°C° 0 mm 2 mps 759 mmHg 50%
    07:00 +24°C° 0 mm 2 mps 760 mmHg 51%
    08:00 +26°C° 0 mm 3 mps 760 mmHg 51%
    09:00 +28°C° 0 mm 3 mps 760 mmHg 51%
    10:00 +30°C° 0 mm 3 mps 760 mmHg 44%
    11:00 +33°C° 0 mm 3 mps 760 mmHg 37%
    12:00 +36°C° 0 mm 3 mps 759 mmHg 30%
    13:00 +36°C° 0 mm 3 mps 759 mmHg 28%
    14:00 +37°C° 0 mm 4 mps 758 mmHg 27%
    15:00 +37°C° 0 mm 4 mps 757 mmHg 25%
    16:00 +35°C° 0 mm 3 mps 757 mmHg 31%
    17:00 +33°C° 0 mm 3 mps 757 mmHg 37%
    18:00 +31°C° 0 mm 3 mps 757 mmHg 44%
    19:00 +29°C° 0 mm 3 mps 758 mmHg 53%
    20:00 +28°C° 0 mm 2 mps 759 mmHg 62%
    21:00 +26°C° 0 mm 2 mps 759 mmHg 71%
    22:00 +26°C° 0 mm 2 mps 759 mmHg 74%
    23:00 +26°C° 0 mm 1 mps 760 mmHg 77%

    25 Julio, Miércoles

    Tiempo Temperatura Precipitaciones Viento Presión Humedad
    00:00 +25°C° 0 mm 1 mps 760 mmHg 81%
    01:00 +25°C° 0 mm 1 mps 760 mmHg 82%
    02:00 +25°C° 0 mm 1 mps 759 mmHg 83%
    03:00 +23°C° 0 mm 0 mps 759 mmHg 84%
    04:00 +24°C° 0 mm 1 mps 759 mmHg 85%
    05:00 +24°C° 0 mm 1 mps 759 mmHg 86%
    06:00 +24°C° 0 mm 1 mps 759 mmHg 87%
    07:00 +26°C° 0,1 mm 2 mps 760 mmHg 79%
    08:00 +28°C° 0,1 mm 3 mps 760 mmHg 71%
    09:00 +29°C° 0,1 mm 3 mps 761 mmHg 63%
    10:00 +31°C° 0 mm 3 mps 760 mmHg 55%
    11:00 +34°C° 0 mm 3 mps 760 mmHg 48%
    12:00 +36°C° 0 mm 3 mps 759 mmHg 40%
    13:00 +36°C° 0 mm 3 mps 759 mmHg 40%
    14:00 +36°C° 0 mm 3 mps 758 mmHg 40%
    15:00 +35°C° 0 mm 3 mps 757 mmHg 40%
    16:00 +35°C° 0 mm 3 mps 757 mmHg 43%
    17:00 +34°C° 0 mm 2 mps 757 mmHg 47%
    18:00 +32°C° 0 mm 2 mps 757 mmHg 50%
    19:00 +30°C° 0 mm 2 mps 758 mmHg 58%
    20:00 +29°C° 0 mm 2 mps 759 mmHg 67%
    21:00 +27°C° 0 mm 2 mps 759 mmHg 75%
    22:00 +27°C° 0 mm 2 mps 759 mmHg 78%
    23:00 +27°C° 0 mm 2 mps 760 mmHg 81%

    26 Julio, Jueves

    Tiempo Temperatura Precipitaciones Viento Presión Humedad
    00:00 +26°C° 0 mm 2 mps 760 mmHg 84%
    01:00 +26°C° 0 mm 2 mps 759 mmHg 85%
    02:00 +26°C° 0 mm 2 mps 759 mmHg 87%
    03:00 +25°C° 0 mm 2 mps 759 mmHg 88%
    04:00 +25°C° 0 mm 2 mps 759 mmHg 89%
    05:00 +25°C° 0 mm 2 mps 759 mmHg 90%
    06:00 +25°C° 0 mm 2 mps 759 mmHg 90%
    07:00 +26°C° 0 mm 3 mps 760 mmHg 81%
    08:00 +28°C° 0 mm 3 mps 760 mmHg 71%
    09:00 +29°C° 0 mm 3 mps 761 mmHg 62%
    10:00 +33°C° 0 mm 3 mps 760 mmHg 53%
    11:00 +35°C° 0 mm 3 mps 760 mmHg 44%
    12:00 +37°C° 0 mm 3 mps 759 mmHg 35%
    13:00 +37°C° 0 mm 3 mps 758 mmHg 34%
    14:00 +37°C° 0 mm 4 mps 758 mmHg 33%
    15:00 +37°C° 0 mm 4 mps 757 mmHg 32%
    16:00 +36°C° 0 mm 4 mps 757 mmHg 37%
    17:00 +34°C° 0 mm 3 mps 757 mmHg 42%
    18:00 +31°C° 0 mm 3 mps 758 mmHg 48%
    19:00 +30°C° 0 mm 3 mps 758 mmHg 56%
    20:00 +28°C° 0 mm 2 mps 759 mmHg 65%
    21:00 +27°C° 0 mm 2 mps 759 mmHg 73%
    22:00 +27°C° 0 mm 2 mps 759 mmHg 76%
    23:00 +26°C° 0 mm 2 mps 759 mmHg 79%

    27 Julio, Viernes

    Tiempo Temperatura Precipitaciones Viento Presión Humedad
    00:00 +26°C° 0 mm 1 mps 759 mmHg 82%
    01:00 +26°C° 0 mm 1 mps 759 mmHg 83%
    02:00 +25°C° 0 mm 1 mps 759 mmHg 85%
    03:00 +25°C° 0 mm 1 mps 759 mmHg 87%
    04:00 +25°C° 0 mm 2 mps 759 mmHg 88%
    05:00 +24°C° 0 mm 2 mps 759 mmHg 90%
    06:00 +24°C° 0 mm 2 mps 759 mmHg 91%
    07:00 +26°C° 0 mm 2 mps 760 mmHg 81%
    08:00 +28°C° 0 mm 3 mps 760 mmHg 72%
    09:00 +30°C° 0 mm 3 mps 760 mmHg 62%
    10:00 +33°C° 0 mm 3 mps 760 mmHg 55%
    11:00 +35°C° 0 mm 3 mps 759 mmHg 47%
    12:00 +37°C° 0 mm 3 mps 759 mmHg 39%
    13:00 +37°C° 0 mm 3 mps 758 mmHg 39%
    14:00 +37°C° 0 mm 4 mps 758 mmHg 39%
    15:00 +37°C° 0 mm 4 mps 757 mmHg 38%
    16:00 +35°C° 0 mm 3 mps 757 mmHg 43%
    17:00 +34°C° 0 mm 3 mps 757 mmHg 47%
    18:00 +31°C° 0 mm 2 mps 758 mmHg 52%
    19:00 +30°C° 0 mm 2 mps 758 mmHg 58%
    20:00 +28°C° 0 mm 3 mps 759 mmHg 65%
    21:00 +27°C° 0 mm 3 mps 759 mmHg 72%
    22:00 +27°C° 0 mm 2 mps 759 mmHg 75%
    23:00 +26°C° 0 mm 2 mps 759 mmHg 79%
    Mostrar más